Stations météo

réclame
Mon MeteoGroup
Achnagart, Grande-Bretagne (99191): Température de l'air & dewpoint: 14.05.2019 05:00:00 - 20.05.2019 05:00:00 (BST)Achnagart, Grande-Bretagne (99191): Quantités de précipitations: 14.05.2019 05:00:00 - 20.05.2019 05:00:00 (BST)
Date & Time tt [°C] td [°C] rr [mm]
20.05.2019 05:00:00 9,4 9,2 0,4
20.05.2019 04:00:00 9,7 9,5 0,0
20.05.2019 03:00:00 9,7 9,4 0,0
20.05.2019 02:00:00 9,9 9,5 0,0
20.05.2019 01:00:00 10,2 9,7 0,0
20.05.2019 00:00:00 10,3 9,8 0,0
19.05.2019 23:00:00 10,7 10,1 0,0
19.05.2019 22:00:00 10,9 10,0 0,0
19.05.2019 21:00:00 11,3 9,9 0,2
19.05.2019 20:00:00 11,7 9,4 0,0
19.05.2019 19:00:00 11,9 10,0 0,0
19.05.2019 18:00:00 13,0 10,1 0,0
19.05.2019 17:00:00 12,8 10,1 0,0
19.05.2019 16:00:00 12,0 10,4 0,2
19.05.2019 15:00:00 12,4 10,3 0,0
19.05.2019 14:00:00 12,4 11,1 0,0
19.05.2019 13:00:00 11,9 10,2 0,2
19.05.2019 12:00:00 12,6 10,0 0,0
19.05.2019 11:00:00 12,2 10,7 0,0
19.05.2019 10:00:00 11,6 10,3 0,0
19.05.2019 09:00:00 10,9 10,6 0,0
19.05.2019 08:00:00 10,2 10,1 0,0
19.05.2019 07:00:00 9,7 9,6 0,0
19.05.2019 06:00:00 9,1 9,0 0,0
19.05.2019 05:00:00 9,0 8,8 0,0
19.05.2019 04:00:00 9,1 8,9 0,0
19.05.2019 03:00:00 9,2 9,0 0,0
19.05.2019 02:00:00 9,5 9,3 0,2
19.05.2019 01:00:00 9,6 9,3 0,0
19.05.2019 00:00:00 10,0 9,6 0,0
18.05.2019 23:00:00 10,1 9,7 0,0
18.05.2019 22:00:00 10,1 9,6 0,2
18.05.2019 21:00:00 10,4 9,6 0,2
18.05.2019 20:00:00 10,8 9,8 0,2
18.05.2019 19:00:00 11,1 9,7 0,4
18.05.2019 18:00:00 11,9 9,8 0,2
18.05.2019 17:00:00 11,8 9,9 0,8
18.05.2019 16:00:00 11,4 9,3 0,6
18.05.2019 15:00:00 11,5 9,1 1,2
18.05.2019 14:00:00 11,5 8,5 0,6
18.05.2019 13:00:00 12,2 8,2 0,2
18.05.2019 12:00:00 12,3 8,1 0,2
18.05.2019 11:00:00 12,7 6,4 0,0
18.05.2019 10:00:00 12,7 6,2 0,0
18.05.2019 09:00:00 12,6 6,2 0,0
18.05.2019 08:00:00 12,0 6,9 0,0
18.05.2019 07:00:00 11,7 6,3 0,0
18.05.2019 06:00:00 11,0 6,3 0,0
18.05.2019 05:00:00 11,2 6,5 0,0
18.05.2019 04:00:00 11,4 6,4 0,0
18.05.2019 03:00:00 11,1 6,9 0,0
18.05.2019 02:00:00 10,9 8,0 0,6
18.05.2019 01:00:00 11,6 7,9 0,0
18.05.2019 00:00:00 12,5 6,0 0,0
17.05.2019 23:00:00 12,5 3,9 0,0
17.05.2019 22:00:00 13,0 4,3 0,0
17.05.2019 21:00:00 14,9 5,1 0,0
17.05.2019 20:00:00 16,4 4,3 0,0
17.05.2019 19:00:00 16,9 4,7 0,0
17.05.2019 18:00:00 19,8 6,2 0,0
17.05.2019 17:00:00 20,3 6,8 0,0
17.05.2019 16:00:00 20,3 5,7 0,0
17.05.2019 15:00:00 20,3 5,3 0,0
17.05.2019 14:00:00 19,9 3,5 0,0
17.05.2019 13:00:00 19,2 5,5 0,0
17.05.2019 12:00:00 16,7 3,4 0,0
17.05.2019 11:00:00 15,1 2,0 0,0
17.05.2019 10:00:00 13,7 3,7 0,0
17.05.2019 09:00:00 12,1 4,8 0,0
17.05.2019 08:00:00 10,9 3,6 0,0
17.05.2019 07:00:00 10,7 4,0 0,0
17.05.2019 06:00:00 9,9 3,8 0,0
17.05.2019 05:00:00 9,0 3,2 0,0
17.05.2019 04:00:00 9,8 3,3 0,0
17.05.2019 03:00:00 9,6 2,8 0,0
17.05.2019 02:00:00 10,5 2,7 0,0
17.05.2019 01:00:00 11,2 2,8 0,0
17.05.2019 00:00:00 9,2 4,5 0,0
16.05.2019 23:00:00 8,1 7,0 0,0
16.05.2019 22:00:00 10,4 9,0 0,0
16.05.2019 21:00:00 12,3 9,8 0,0
16.05.2019 20:00:00 14,7 10,1 0,0
16.05.2019 19:00:00 16,2 9,9 0,0
16.05.2019 18:00:00 17,7 10,1 0,0
16.05.2019 17:00:00 18,5 9,8 0,0
16.05.2019 16:00:00 19,5 10,2 0,0
16.05.2019 15:00:00 20,3 8,9 0,0
16.05.2019 14:00:00 21,1 8,7 0,0
16.05.2019 13:00:00 20,7 8,8 0,0
16.05.2019 12:00:00 19,4 8,6 0,0
16.05.2019 11:00:00 20,4 8,8 0,0
16.05.2019 10:00:00 18,4 9,0 0,0
16.05.2019 09:00:00 16,4 8,4 0,0
16.05.2019 08:00:00 14,9 7,8 0,0
16.05.2019 07:00:00 14,8 8,0 0,0
16.05.2019 06:00:00 15,4 8,3 0,0
16.05.2019 05:00:00 15,6 9,0 0,0
16.05.2019 04:00:00 13,1 10,2 0,0
16.05.2019 03:00:00 11,0 9,2 0,0
16.05.2019 02:00:00 10,4 8,9 0,0
16.05.2019 01:00:00 9,6 7,8 0,0
16.05.2019 00:00:00 9,9 8,0 0,0
15.05.2019 23:00:00 10,9 8,5 0,0
15.05.2019 22:00:00 13,8 7,8 0,0
15.05.2019 21:00:00 16,7 7,7 0,0
15.05.2019 20:00:00 19,1 7,8 0,0
15.05.2019 19:00:00 20,9 8,2 0,0
15.05.2019 18:00:00 21,7 8,6 0,0
15.05.2019 17:00:00 21,9 7,8 0,0
15.05.2019 16:00:00 22,9 8,4 0,0
15.05.2019 15:00:00 24,9 8,0 0,0
15.05.2019 14:00:00 24,7 7,5 0,0
15.05.2019 13:00:00 23,3 6,7 0,0
15.05.2019 12:00:00 21,6 5,1 0,0
15.05.2019 11:00:00 21,6 5,2 0,0
15.05.2019 10:00:00 19,4 6,1 0,0
15.05.2019 09:00:00 12,6 8,8 0,0
15.05.2019 08:00:00 7,8 6,2 0,0
15.05.2019 07:00:00 5,9 5,3 0,0
15.05.2019 06:00:00 4,9 4,2 0,0
15.05.2019 05:00:00 6,1 5,0 0,0
15.05.2019 04:00:00 7,7 5,5 0,0
15.05.2019 03:00:00 10,0 5,0 0,0
15.05.2019 02:00:00 10,8 7,6 0,0
15.05.2019 01:00:00 8,0 6,2 0,0
15.05.2019 00:00:00 7,1 5,9 0,0
14.05.2019 23:00:00 8,4 6,2 0,0
14.05.2019 22:00:00 10,2 6,5 0,0
14.05.2019 21:00:00 13,9 8,1 0,0
14.05.2019 20:00:00 16,6 6,7 0,0
14.05.2019 19:00:00 17,1 7,2 0,0
14.05.2019 18:00:00 18,6 6,2 0,0
14.05.2019 17:00:00 20,5 6,5 0,0
14.05.2019 16:00:00 21,4 5,9 0,0
14.05.2019 15:00:00 22,4 3,3 0,0
14.05.2019 14:00:00 21,9 4,7 0,0
14.05.2019 13:00:00 20,3 2,4 0,0
14.05.2019 12:00:00 19,2 1,0 0,0
14.05.2019 11:00:00 18,8 1,3 0,0
14.05.2019 10:00:00 17,9 3,5 0,0
14.05.2019 09:00:00 15,2 6,8 0,0
14.05.2019 08:00:00 10,6 5,5 0,0
14.05.2019 07:00:00 9,2 5,0 0,0
14.05.2019 06:00:00 7,1 5,3 0,0
14.05.2019 05:00:00 4,0 3,3 0,0

tt = Température de l'air
td = dewpoint
rr = Quantités de précipitations

stations d'obs. à proximité